Location: Banksville Park
(38.5557°N, 75.1182°W)
Time: 17:11:00
(UTC+00:00)

SAR-Lupe-1 - Pass Details

Date: 23 January 2021
Orbit: 482 x 484 km, 98.2° (Epoch: 02 March)

Event Time Altitude Azimuth Distance (km) Brightness Sun altitude
Rises 10:41:07 0° 166° (SSE) 2,533 8.0 -17.9°
Reaches altitude 10° 10:43:10 10° 166° (SSE) 1,658 7.1 -17.5°
Maximum altitude 10:46:44 90° 166° (SSE) 489 4.0 -16.8°
Drops below altitude 10° 10:50:20 10° 347° (NNW) 1,671 6.5 -16.1°
Enters shadow 10:50:24 10° 347° (NNW) 1,704 6.6 -16.1°
